Sparta, TN

2:43 PM CDT on July 25, 2017 (GMT -0500)
Upper Cumberland Regional

Weather History for KSRB - December, 2013

Change the Weather History Date:

Sunday, December 29, 2013

  Actual Average (KCSV) Record (KCSV)
Temperature  
Mean Temperature 40 °F -  
Max Temperature 46 °F 44 °F 67 °F (1984)
Min Temperature 33 °F 28 °F 0 °F (1961)
Degree Days  
Heating Degree Days 26    
Moisture  
Dew Point 38 °F    
Average Humidity 92    
Maximum Humidity 100    
Minimum Humidity 71    
Precipitation  
Precipitation 0.00 in - - ()
Sea Level Pressure  
Sea Level Pressure 29.96 in    
Wind  
Wind Speed 1 mph (WNW)    
Max Wind Speed 9 mph    
Max Gust Speed -    
Visibility 8 miles    
Events      
Averages and records for this station are not official NWS values.
T = Trace of Precipitation, MM = Missing Value Source: NWS Daily Summary

Daily Weather History Graph

Daily Weather History Graph

Search for Another Location

Airport or City:

Trip Planner

Search our weather history database for the weather conditions in past years. The results will help you decide how hot, cold, wet, or windy it might be!

Date:

Astronomy

Dec. 29, 2013 Rise Set
Actual Time 6:52 AM CST 4:36 PM CST
Civil Twilight 6:23 AM CST 5:05 PM CST
Nautical Twilight 5:51 AM CST 5:37 PM CST
Astronomical Twilight 5:20 AM CST 6:08 PM CST
Moon 3:37 AM CST (12/29) 2:11 PM CST (12/29)
Length of Visible Light 10h 41m
Length of Day
9h 44m
Waning Crescent, 11% of the Moon is Illuminated
Dec 29
Waning Crescent
Jan 1
New
Jan 7
First Quarter
Jan 15
Full
Jan 23
Last Quarter

Hourly Weather History & Observations

Time (CST) Temp. Windchill Dew Point Humidity Pressure Visibility Wind Dir Wind Speed Gust Speed Precip Events Conditions
12:55 AM 41.0 °F - 39.2 °F 93% 29.90 in 1.8 mi Calm Calm - N/A   Overcast
1:15 AM 39.2 °F - 39.2 °F 100% 29.89 in 1.8 mi Calm Calm - N/A   Overcast
1:35 AM 39.2 °F - 39.2 °F 100% 29.89 in 2.0 mi Calm Calm - N/A   Overcast
1:55 AM 39.2 °F 37.0 °F 39.2 °F 100% 29.89 in 3.0 mi NW 3.5 mph - N/A   Overcast
2:15 AM 39.2 °F 37.0 °F 39.2 °F 100% 29.89 in 2.0 mi NW 3.5 mph - N/A   Overcast
2:35 AM 39.2 °F - 39.2 °F 100% 29.89 in 2.0 mi Calm Calm - N/A   Overcast
2:55 AM 39.2 °F - 39.2 °F 100% 29.90 in 3.0 mi Calm Calm - N/A   Overcast
3:15 AM 39.2 °F - 39.2 °F 100% 29.90 in 4.0 mi Calm Calm - N/A   Overcast
3:35 AM 39.2 °F - 39.2 °F 100% 29.90 in 4.0 mi Calm Calm - N/A   Overcast
3:55 AM 39.2 °F - 39.2 °F 100% 29.91 in 6.0 mi Calm Calm - N/A   Overcast
4:15 AM 39.2 °F - 39.2 °F 100% 29.89 in 4.0 mi Calm Calm - N/A   Overcast
4:35 AM 39.2 °F - 39.2 °F 100% 29.89 in 5.0 mi Calm Calm - N/A   Overcast
4:55 AM 39.2 °F - 39.2 °F 100% 29.89 in 6.0 mi Calm Calm - N/A   Overcast
5:15 AM 39.2 °F - 39.2 °F 100% 29.90 in 7.0 mi Calm Calm - N/A   Overcast
5:35 AM 39.2 °F - 39.2 °F 100% 29.91 in 4.0 mi Calm Calm - N/A   Overcast
5:55 AM 39.2 °F - 39.2 °F 100% 29.90 in 7.0 mi Calm Calm - N/A   Overcast
6:15 AM 39.2 °F - 39.2 °F 100% 29.91 in 10.0 mi Calm Calm - N/A   Overcast
6:35 AM 39.2 °F - 39.2 °F 100% 29.91 in 6.0 mi Calm Calm - N/A   Overcast
6:55 AM 39.2 °F - 39.2 °F 100% 29.92 in 8.0 mi Calm Calm - N/A   Overcast
7:15 AM 39.2 °F - 39.2 °F 100% 29.93 in 4.0 mi Calm Calm - N/A   Overcast
7:35 AM 39.2 °F - 39.2 °F 100% 29.93 in 5.0 mi Calm Calm - N/A   Overcast
7:55 AM 39.2 °F - 39.2 °F 100% 29.93 in 8.0 mi Calm Calm - N/A   Overcast
8:15 AM 39.2 °F - 39.2 °F 100% 29.92 in 10.0 mi Calm Calm - N/A   Overcast
8:35 AM 41.0 °F - 39.2 °F 93% 29.94 in 10.0 mi Calm Calm - N/A   Overcast
8:55 AM 41.0 °F 39.0 °F 39.2 °F 93% 29.94 in 10.0 mi West 3.5 mph - N/A   Overcast
9:15 AM 41.0 °F 39.0 °F 39.2 °F 93% 29.96 in 10.0 mi West 3.5 mph - N/A   Overcast
9:35 AM 41.0 °F 38.0 °F 39.2 °F 93% 29.95 in 10.0 mi WNW 4.6 mph - N/A   Overcast
9:55 AM 41.0 °F 38.0 °F 39.2 °F 93% 29.96 in 10.0 mi NW 4.6 mph - N/A   Overcast
10:15 AM 41.0 °F - 39.2 °F 93% 29.96 in 10.0 mi Calm Calm - N/A   Overcast
10:35 AM 42.8 °F 41.1 °F 39.2 °F 87% 29.96 in 10.0 mi West 3.5 mph - N/A   Overcast
10:55 AM 42.8 °F - 39.2 °F 87% 29.95 in 10.0 mi Calm Calm - N/A   Overcast
11:15 AM 42.8 °F 39.3 °F 39.2 °F 87% 29.96 in 10.0 mi West 5.8 mph - N/A   Overcast
11:35 AM 42.8 °F 41.1 °F 39.2 °F 87% 29.95 in 10.0 mi West 3.5 mph - N/A   Overcast
11:55 AM 42.8 °F 39.3 °F 39.2 °F 87% 29.95 in 10.0 mi WNW 5.8 mph - N/A   Overcast
12:15 PM 42.8 °F 40.1 °F 39.2 °F 87% 29.94 in 10.0 mi WSW 4.6 mph - N/A   Overcast
12:35 PM 44.6 °F - 39.2 °F 81% 29.94 in 10.0 mi Calm Calm - N/A   Overcast
12:55 PM 44.6 °F - 39.2 °F 81% 29.94 in 10.0 mi Calm Calm - N/A   Overcast
1:15 PM 44.6 °F - 39.2 °F 81% 29.94 in 10.0 mi Calm Calm - N/A   Overcast
1:35 PM 44.6 °F 41.4 °F 39.2 °F 81% 29.93 in 10.0 mi SW 5.8 mph - N/A   Mostly Cloudy
1:55 PM 44.6 °F 41.4 °F 39.2 °F 81% 29.93 in 10.0 mi SW 5.8 mph - N/A   Partly Cloudy
2:15 PM 46.4 °F - 39.2 °F 76% 29.93 in 10.0 mi Calm Calm - N/A   Mostly Cloudy
2:35 PM 44.6 °F - 39.2 °F 81% 29.94 in 10.0 mi Calm Calm - N/A   Partly Cloudy
2:55 PM 46.4 °F 44.3 °F 37.4 °F 71% 29.94 in 10.0 mi West 4.6 mph - N/A   Unknown
3:15 PM 44.6 °F 41.4 °F 39.2 °F 81% 29.96 in 10.0 mi Variable 5.8 mph - N/A   Scattered Clouds
3:35 PM 44.6 °F 42.2 °F 37.4 °F 76% 29.96 in 10.0 mi WSW 4.6 mph - N/A   Partly Cloudy
3:55 PM 44.6 °F - 37.4 °F 76% 29.96 in 10.0 mi Calm Calm - N/A   Clear
4:15 PM 42.8 °F 40.1 °F 37.4 °F 81% 29.97 in 10.0 mi SSW 4.6 mph - N/A   Clear
4:35 PM 39.2 °F 37.0 °F 35.6 °F 87% 29.97 in 10.0 mi South 3.5 mph - N/A   Clear
4:55 PM 39.2 °F 37.0 °F 35.6 °F 87% 29.97 in 10.0 mi South 3.5 mph - N/A   Clear
5:15 PM 37.4 °F - 35.6 °F 93% 29.98 in 10.0 mi Calm Calm - N/A   Clear
5:35 PM 35.6 °F - 33.8 °F 93% 29.98 in 10.0 mi Calm Calm - N/A   Clear
5:55 PM 33.8 °F - 32.0 °F 93% 29.98 in 10.0 mi Calm Calm - N/A   Clear
6:15 PM 33.8 °F - 33.8 °F 100% 29.99 in 10.0 mi Calm Calm - N/A   Scattered Clouds
6:35 PM 35.6 °F - 33.8 °F 93% 29.99 in 10.0 mi Calm Calm - N/A   Mostly Cloudy
6:55 PM 37.4 °F - 35.6 °F 93% 30.00 in 10.0 mi Calm Calm - N/A   Mostly Cloudy
7:15 PM 37.4 °F - 35.6 °F 93% 30.00 in 10.0 mi Calm Calm - N/A   Scattered Clouds
7:35 PM 37.4 °F - 37.4 °F 100% 30.00 in 10.0 mi Calm Calm - N/A   Scattered Clouds
7:55 PM 37.4 °F - 37.4 °F 100% 30.00 in 10.0 mi Calm Calm - N/A   Scattered Clouds
8:15 PM 39.2 °F - 37.4 °F 93% 30.01 in 10.0 mi Calm Calm - N/A   Scattered Clouds
8:35 PM 39.2 °F - 37.4 °F 93% 30.01 in 10.0 mi Calm Calm - N/A   Partly Cloudy
8:55 PM 39.2 °F - 37.4 °F 93% 30.02 in 10.0 mi Calm Calm - N/A   Scattered Clouds
9:15 PM 39.2 °F - 37.4 °F 93% 30.02 in 10.0 mi Calm Calm - N/A   Mostly Cloudy
9:35 PM 39.2 °F 34.2 °F 37.4 °F 93% 30.04 in 10.0 mi Variable 6.9 mph - N/A   Overcast
9:55 PM 39.2 °F 34.2 °F 35.6 °F 87% 30.05 in 10.0 mi North 6.9 mph - N/A   Overcast
10:15 PM 37.4 °F 32.1 °F 35.6 °F 93% 30.06 in 10.0 mi North 6.9 mph - N/A   Overcast
10:35 PM 37.4 °F 34.9 °F 33.8 °F 87% 30.05 in 10.0 mi North 3.5 mph - N/A   Overcast
10:55 PM 37.4 °F 32.8 °F 33.8 °F 87% 30.07 in 10.0 mi North 5.8 mph - N/A   Overcast
11:15 PM 35.6 °F 29.9 °F 33.8 °F 93% 30.08 in 9.0 mi NNW 6.9 mph - N/A   Overcast
11:35 PM 35.6 °F 28.6 °F 33.8 °F 93% 30.08 in 7.0 mi North 9.2 mph - N/A   Overcast
11:55 PM 33.8 °F 28.6 °F 33.8 °F 100% 30.09 in 5.0 mi Variable 5.8 mph - N/A   Overcast